Location: Gleizolles
(44.4833°N, 6.7667°E)
Time: 16:15:25
(UTC+00:00)

Explorer 7 - Pass Details

Date: 24 June 2024
Orbit: 465 x 619 km, 50.3° (Epoch: 12 July)

Event Time Altitude Azimuth Distance (km) Brightness Sun altitude
Rises 16:38:19 0° 284° (WNW) 2,518 11.5 26.1°
Reaches altitude 10° 16:41:24 10° 257° (WSW) 1,621 10.6 25.6°
Maximum altitude 16:43:11 13° 227° (SW) 1,429 9.6 25.2°
Drops below altitude 10° 16:44:56 10° 198° (SSW) 1,609 9.4 24.9°
Sets 16:47:59 0° 170° (S) 2,482 10.0 24.4°
